Regional Weather Roundup
Issued by NWS Wakefield, VA

Home | Current Version | Previous Version | Graphics & Text | Print | Product List | Glossary On
Versions: 1 2 3 4 5 6 7 8 9 10 11 12 13 14 15 16 17 18 19 20 21 22 23 24 25
000
ASUS41 KAKQ 302115
RWRAKQ

REGIONAL WEATHER ROUNDUP
NATIONAL WEATHER SERVICE WAKEFIELD VA
500 PM EDT THU JUL 30 2015

Note: "fair" indicates few or no clouds below 12,000 feet with no
significant weather and/or obstructions to visibility. * = Denotes
station may not report precipitation (e.g., rain,snow,etc.),
thunder or fog.

VAZ042-051-052>054-056-302200-
NORTHERN VIRGINIA

CITY           SKY/WX    TMP DP  RH WIND       PRES   REMARKS
WASH NATIONAL  PTSUNNY   83  76  79 S7        29.87S
DULLES         PTSUNNY   84  75  74 S5        29.86F
FORT BELVOIR   CLOUDY    81  75  83 SE5       29.87S
QUANTICO       CLOUDY    81  74  77 S8        29.86R
FREDERICKSBRG* CLOUDY    80  79  99 SE5       29.88S
STAFFORD*      PTSUNNY   79  74  83 S7        29.92S
WARRENTON      CLOUDY    85  80  83 CALM      29.86S HX  99
CULPEPER*      MOSUNNY   83  74  76 CALM      29.87F
MANASSAS*      NOT AVBL
LEESBURG*      PTSUNNY   90  77  66 CALM      29.87S HX 102
WINCHESTER     PTSUNNY   91  63  38 NW10G18   29.88R
FRONT ROYAL*   FAIR      84  75  74 NE3       29.87S
LURAY*         FAIR      90  75  62 E5        29.88R HX 100
$$

VAZ048-049-060>072-079>083-302200-
CENTRAL AND SOUTH CENTRAL VIRGINIA

CITY           SKY/WX    TMP DP  RH WIND       PRES   REMARKS
RICHMOND       CLOUDY    91  74  57 SW10      29.86S HX 100
CHESTERFIELD*  FAIR      90  66  45 SW7       29.88S
PETERSBURG*    PTSUNNY   88  81  79 SW3       29.87S HX 107
HANOVER        PTSUNNY   89  74  60 SW9       29.88R HX  98
TAPPAHANNOCK*  PTSUNNY   87  73  63 S3        29.87R
QUINTON*       MOCLDY    89  76  67 CALM      29.85S HX 100
CHARLOTTSVILLE PTSUNNY   89  74  60 S5        29.86F HX  98
GORDONSVILLE*  FAIR      84  79  84 CALM      29.85F HX  96
ORANGE*        PTSUNNY   84  75  74 E5        29.88F
LOUISA*        PTSUNNY   88  77  70 S3        29.85F HX 100
BUMPASS*       FAIR      80  76  87 E6        29.87F
FARMVILLE*     PTSUNNY   87  73  64 S10       29.87S
CREWE*         FAIR     N/A N/A N/A W5        29.88F
FORT PICKETT*  FAIR      85  76  74 S3        29.88F HX  95
CHASE CITY*    FAIR      88  78  72 CALM      29.88F HX 101
CLARKSVILLE*   FAIR      88  77  70 W5        29.88F HX 100
SOUTH HILL*    CLOUDY    87  78  74 W6        29.93F HX  99
LAWRENCEVILLE* FAIR      88  77  70 CALM      29.87S HX 100
EMPORIA*       PTSUNNY   88  73  62 CALM      29.88S HX  96
$$

VAZ088>098-302200-
SOUTHEAST VIRGINIA

CITY           SKY/WX    TMP DP  RH WIND       PRES   REMARKS
NORFOLK        PTSUNNY   92  71  50 VRB6      29.85F HX  98
VIRGINIA BEACH PTSUNNY   92  75  57 S8        29.85F HX 103
NORFOLK NAVAL  PTSUNNY   91  74  57 N7        29.87F HX 100
WEST POINT*    MOSUNNY   93  71  48 S8        29.87S HX 100
SALUDA*        FAIR      87  75  67 S3        29.86S HX  97
NEWPORT NEWS   MOSUNNY   93  71  48 SW12G17   29.86F HX 100
LANGLEY AFB    PTSUNNY   92  76  59 E10       29.86S HX 103
FORT EUSTIS    MOSUNNY   92  71  50 S7        29.84F HX  98
WILLIAMSBURG*  MOSUNNY   95  75  52 S6        29.87S HX 107
HR EXEC AP*    FAIR      93  72  49 S6        29.87F HX 100
FRANKLIN*      MOSUNNY   91  71  52 S5        29.86F HX  97
WAKEFIELD      MOSUNNY   91  73  55 SW6       29.86F HX  99
$$

VAZ020-022-025-037-045-302200-
WEST CENTRAL AND SOUTHWEST VIRGINIA

CITY           SKY/WX    TMP DP  RH WIND       PRES   REMARKS
STAUNTON*      TSTM      86  74  69 NE16G22   29.91S
WAYNESBORO*    FAIR      87  74  64 SW10      29.90F HX  95
HOT SPRINGS VA PTSUNNY   78  66  66 W10G16    30.08S
LYNCHBURG      SUNNY     88  72  58 CALM      29.91F
DANVILLE       MOSUNNY   89  76  65 CALM      29.89F HX 100
SOUTH BOSTON*  FAIR      87  77  72 SW3       29.88F HX  98
MARTINSVILLE   MOSUNNY   94  68  42 N6        29.93S HX  99
ROANOKE        MOSUNNY   93  67  42 NW14      29.93F HX  96
BLACKSBURG     PTSUNNY   83  72  67 W8G18     30.02S
DUBLIN*          N/A     86  70  59 NW8       30.02R
MARION*        PTSUNNY   83  68  60 W10       30.06F
HILLSVILLE*    MOSUNNY   85  65  51 NW8       30.03F
RICHLANDS*     FAIR      80  68  67 NW8       30.08F
WISE*          MOSUNNY   84  64  51 W10       30.11F
ABINGDON*      MOSUNNY   85  68  56 N8        30.03F
$$

MDZ021>025-VAZ099-100-302200-
SOUTHERN MARYLAND AND THE DELMARVA PENINSULA

CITY           SKY/WX    TMP DP  RH WIND       PRES   REMARKS
PATUXENT RIVER CLOUDY    86  74  67 S5        29.86R
BAY BRIDGE APT   N/A     77  75  94 S5        29.87S
LEONARDTOWN    CLOUDY    79  72  78 W12       29.91R
DOVER          CLOUDY    85  75  71 W17G28    29.84S
GEORGETOWN     PTSUNNY   88  71  57 SW9       29.86S
EASTON         NOT AVBL
CAMBRIDGE      PTSUNNY   81  72  74 NW15      29.88R
SALISBURY      PTSUNNY   87  75  67 S9        29.87R HX  96
OCEAN CITY     MOSUNNY   83  76  79 S10       29.88R
WALLOPS ISLAND SUNNY     85  76  74 S14       29.89S
ACCOMACK*      SUNNY     86  77  74 S9        29.88R HX  97
$$

NCZ012>017-030>032-302200-
NORTH CENTRAL AND EASTERN NORTH CAROLINA

CITY           SKY/WX    TMP DP  RH WIND       PRES   REMARKS
ROANOKE RAPIDS FAIR      90  70  51 S3        29.86F HX  95
RALEIGH        PTSUNNY   89  74  60 CALM      29.89R HX  98
ELIZABETH CITY MOSUNNY   88  76  67 SW14      29.88F HX  99
AHOSKIE*       PTSUNNY   91  72  55 E3        29.86F HX  98
EDENTON*         N/A     89  75  62 S12       29.87F HX  99
CURRITUCK*     MOSUNNY   90  72  55 SW7       29.89S HX  97
KILL DEVIL HLS MOSUNNY   91  75  59 S7        29.88F HX 100
MANTEO         MOSUNNY   87  76  71 S16       29.90S HX  97
CAPE HATTERAS  SUNNY     85  76  74 S12       29.91F
TARBORO*         N/A     95  66  37 S3        29.87F HX  98
GOLDSBORO      NOT AVBL
WASHINGTON     SUNNY     89  77  67 SE7       29.88F HX 101
GREENVILLE     SUNNY     95  73  49 S9        29.88F HX 105
NEW BERN       MOSUNNY   90  74  59 S8        29.88F HX  99
WILMINGTON     SUNNY     89  75  63 E7        29.86F HX  99
$$

VAZ048-302200-
ELSEWHERE

CITY           SKY/WX    TMP DP  RH WIND       PRES   REMARKS
HARRISBURG PA  PTSUNNY   88  65  46 NW15      29.82F
BALTIMORE      CLOUDY    82  75  79 CALM      29.85S
ANNAPOLIS      CLOUDY    78  72  81 S6        29.86S
ANDREWS AFB    PTSUNNY   78  74  85 S5        29.87R
PHILADELPHIA   TSTM      77  72  84 SW12      29.85R
HENDERSON NC   LGT RAIN  83  74  73 CALM      29.89F
GREENSBORO     PTSUNNY   92  69  47 VRB3      29.91F HX  97
ROCKY MOUNT    MOSUNNY   93  71  48 S5        29.86F HX 100
$$

VAZ100-302200-
MARINE

STATION/POSITION TIME  TEMP    WIND        PRES    WAVE   SWELL
                       AIR SEA DIR/SP/G            HT/PER HT/PER
                 (UTC) (F)     (DEG/KT/KT) (MB)    (FT/S) (FT/S)
BRANDYWINE LGT   2000   78 78  180/ 15/ 17 1011.1F
CAPE MAY NJ      2000   79 81  160/ 16/ 21 1010.7F
LEWES DE         2000   85 73  200/  8/ 11 1010.9F
15NM E FENWICK I 2050   80 80  180/ 16/ 17 1011.5F   3/10   2/10
OCEAN-CITY-INLET 2000   79 82  200/  9/ 12 1010.9F
WACHAPREAGUE VA  2000   84 87  170/  9/ 13 1011.9F
GOOSES REEF MD   2100   78 82  260/ 10/ 14 1012.6R
COVE POINT MD    2000   82     180/ 15/ 19 1011.5F
SOLOMONS ISLAND  2000      83                N/A
BISHOPS HEAD MD  2000   85 85  190/ 13/ 16 1010.2F
PINEY POINT MD   2000          230/  6/  8   N/A
POTOMAC MD       2100   85 84  160/ 10/ 12 1010.2R   2/ 3
CAMBRIDGE MD     2000   88 84  180/  6/ 13 1010.0F
LEWISETTA VA     2000   88 85  240/ 10/ 13 1010.6F
RAPPAHANNOCK LGT 2000          170/ 10/ 11 1011.9F
STINGRAY PT      2100   84 84  180/ 12/ 14 1011.6R   1/ 3
YORK RVR RNG VA  2000   82     140/ 16/ 18 1010.7F
YORKTOWN VA      2000   86 85  100/  9/ 11 1010.9F
JAMESTOWN VA     2100   90 87  190/  4/  6   N/A
DOMINION TERM VA 2000   86     100/  5/  7 1011.3F
KIPTOPEKE VA     2000      85  180/ 13/ 16   N/A
CHES BAY BRIDGE  2000   86 82  100/ 10/ 13 1010.9F
CAPE HENRY VA    2000   84     140/ 15/ 18   N/A
CHESAPEAKE LGHT  2000   81     170/ 16/ 17 1012.4F
WILLOUBY STN VA  2000   85      70/  7/  7 1012.4F
CAPE HENRY BUOY  2028      81                N/A     2/ 9
1ST LANDING BUOY 2100      82              1010.7F   2/ 4
CAPE CHARLES BUO 2026      81                N/A     2/ 9   2/ 9
OFFSHORE WE BUOY 2011      83                N/A     3/10   2/10
64NM E OF VA BCH 2050   82 82  200/ 16/ 17 1012.0F   3/10   2/10
DUCK PIER NC     2000   84 68  210/  9/ 12 1011.5F
44100 DUCK FRF   2024      82                N/A     3/ 9
44056 DUCK FRF   2011      75                N/A     2/11   2/11
OREGON INLET NC  2000   84 86  180/ 14/ 18 1012.7F
HATTERAS NC      2000   86 84  180/  6/ 12 1012.9F
DIAMOND SHLS NC  2050   84 86  160/ 16/ 19 1012.7F   5/ 8   2/ 8
CAPE LOOKOUT NC  2100   83     150/ 10/ 11 1011.8F
$$



USA.gov is the U.S. government's official web portal to all federal, state and local government web resources and services.